DMSP 5D-2 F11 DEB, 28321

Orbit data source: Space-Track

DMSP 5D-2 F11 DEB, 28321 is space debris in SSO originally from a launch on Thu, 28 Nov 1991 UTC launched from the Air Force Western Test Range (AFWTR). Debris objects in space refer to the collection of defunct objects orbiting the Earth. Examples of debris include non-operational satellites, rocket bodies, and fragments generated from explosions, collisions, or faulty payload assembly.

Loading next visibility...
Identifier
28321, 1991-082AJ
Orbit
SSO
Country
Flag of USUS
Related business
Manufacturer
Unknown
Mission
Spacecraft
Bus & Motor
Unknown
Mass
Unknown
Launch date (UTC)
1991-11-28 (35 years ago)
Launch vehicle
Unknown
Launch site
Air Force Western Test Range (AFWTR)
Object type
Payload
Rocket body
Debris
Shape & HBR
Unknown shape, 0.1 m
Radar Cross Section
Medium (>0.1 m² and <1 m²)

Expand to show TLE details & history
Last TLE update: 15 hours ago

TLE from 15 hours ago
0 DMSP 5D-2 F11 DEB
1 28321U 91082AJ  26208.65637674  .00984194  00000-0  94957-2 0  9999
2 28321  98.5074 349.6238 0016434 269.3085  90.6287 15.63750977164314
Epoch: 2026-07-27T15:45Z
TLE epoch observation values (Epoch: 2026-07-27T15:45:10.950Z)
Latitude
-0.00004°
Longitude
167.99136°
Altitude
380.088 km
Speed
7.682 km/s
True Right ascension
23h 18m 29s
True Declination
0° 00' 00"
Sunlit
Object was in full shadow at epoch
Visualization orbit readout
Latitude
Unknown
Longitude
Unknown
Altitude
Unknown
Speed
Unknown
Apparent Right ascension
Unknown
Apparent Declination
Unknown
Sunlit
N/A
Visualization observer readout
Local Sidereal Time
19:46:30
Azimuth
Unknown
Elevation
Unknown
Doppler factor
Unknown
Orbital elements
Apogee altitude
384.889 km
Perigee altitude
362.696 km
Semi-major axis
6,751.93 km
Eccentricity
0.00164
Inclination
98.5074°
RAAN
349.6238°
Arg. of periapsis
269.3085°
True anomaly
90.817°
Mean anomaly
90.6287°
Eccentric anomaly
90.72285°
Mean motion
3.91202 °/min
Orbital period
92.02 mins
BSTAR
0.0094957
Loading maneuver chart data...
Computing Atmospheric mass density...

Documentation

Showing up to 5 results
|